Flag for U.S.A. Weather past 2 weeks in Buffalo, New York, U.S.A.

Now
73 °F

Broken clouds.


Feels Like: 75 °F
Forecast: 72 / 80 °F
Wind: 10 mph from West

Location: Greater Buffalo International Airport

Current Time: Jul 30, 2015 at 8:31:16 AM

Latest Report: Jul 30, 2015 at 7:54 AM


Visibility: 10 mi

Pressure: 29.85 "Hg

Humidity: 69%

Dew point: 62 °F

Location of BuffaloLocation

Historic Weather in Buffalo — Graph

°F

Buffalo temperature yesterday

Maximum temperature yesterday: 90 °F (at 1:54 PM)
Minimum temperature yesterday: 68 °F (at 5:54 AM)
Average temperature yesterday: 80 °F

Past Weeks' High & Low Weather Summary

 TemperatureHumidityPressure
High90 °F (Jul 29, 1:54 PM)91% (Jul 18, 7:54 AM)30.13 "Hg (Jul 18, 7:54 AM)
Low52 °F (Jul 16, 5:54 AM)30% (Jul 23, 5:54 PM)29.63 "Hg (Jul 21, 4:54 AM)
Average73 °F64%29.90 "Hg
* Reported Jul 15 6:54 AM — Jul 30 6:54 AM, Buffalo, Weather by CustomWeather, © 2015

Note: Actual official high and low records may vary slightly from our data, if they occured in-between our weather recording intervals... More about our weather records

Advertising

Buffalo weather history for previous 24 hours

 ConditionsComfort  
Time TempWeatherWind HumidityBarometerVisibility
6:54 AM
Thu, Jul 30
74 °FPartly cloudy.7 mph85%29.84 "Hg10 mi
5:54 AM74 °FMostly cloudy.8 mph88%29.82 "Hg10 mi
4:54 AM75 °FLight rain. Overcast.6 mph82%29.81 "Hg9 mi
3:54 AM78 °FPartly cloudy.8 mph76%29.80 "Hg10 mi
2:54 AM79 °FPartly cloudy.10 mph69%29.80 "Hg10 mi
1:54 AM76 °FPartly cloudy.6 mph72%29.82 "Hg10 mi
12:54 AM77 °FPassing clouds.7 mph66%29.83 "Hg10 mi
11:54 PM
Wed, Jul 29
77 °FPartly cloudy.6 mph71%29.84 "Hg10 mi
10:54 PM79 °FPassing clouds.6 mph69%29.85 "Hg10 mi
9:54 PM80 °FPartly cloudy.7 mph71%29.85 "Hg10 mi
8:54 PM82 °FBroken clouds.9 mph53%29.86 "Hg10 mi
7:54 PM86 °FBroken clouds.8 mph37%29.86 "Hg10 mi
6:54 PM87 °FBroken clouds.8 mph42%29.85 "Hg10 mi
5:54 PM90 °FBroken clouds.7 mph34%29.87 "Hg10 mi
4:54 PM88 °FPartly sunny.8 mph36%29.88 "Hg10 mi
3:54 PM89 °FPartly sunny.9 mph35%29.90 "Hg10 mi
2:54 PM89 °FPartly sunny.14 mph36%29.91 "Hg10 mi
1:54 PM90 °FScattered clouds.9 mph34%29.93 "Hg10 mi
12:54 PM88 °FScattered clouds.9 mph36%29.95 "Hg10 mi
11:54 AM87 °FPartly sunny.12 mph40%29.97 "Hg10 mi
10:54 AM84 °FPartly sunny.7 mph48%29.97 "Hg10 mi
9:54 AM80 °FPartly sunny.6 mph54%29.97 "Hg10 mi
8:54 AM75 °FBroken clouds.5 mph64%29.98 "Hg10 mi
Weather by CustomWeather, © 2015

See weather overviewHow to use our weather pages